TimeCDT,TemperatureF,Dew PointF,Humidity,Sea Level PressureIn,VisibilityMPH,Wind Direction,Wind SpeedMPH,Gust SpeedMPH,PrecipitationIn,Events,Conditions,WindDirDegrees,DateUTC
12:55 AM,79.0,68.7,71,29.88,10.0,SE,8.1,-,N/A,,Clear,140,2012-10-14 05:55:00
1:55 AM,78.6,69.3,73,29.89,10.0,SE,9.2,-,N/A,,Partly Cloudy,140,2012-10-14 06:55:00
2:55 AM,77.2,69.3,76,29.90,10.0,ESE,8.1,-,N/A,,Clear,120,2012-10-14 07:55:00
3:55 AM,75.4,69.3,81,29.89,10.0,SE,8.1,-,N/A,,Clear,130,2012-10-14 08:55:00
4:55 AM,73.6,68.7,85,29.90,10.0,ESE,5.8,-,N/A,,Clear,120,2012-10-14 09:55:00
5:51 AM,73.4,68.0,83,29.94,10.0,ENE,5.8,-,N/A,,Mostly Cloudy,60,2012-10-14 10:51:00
5:55 AM,73.2,68.4,85,29.94,10.0,NE,6.9,-,N/A,,Mostly Cloudy,50,2012-10-14 10:55:00
6:43 AM,73.4,68.0,83,29.96,10.0,ENE,6.9,-,N/A,,Overcast,60,2012-10-14 11:43:00
6:55 AM,73.6,68.4,84,29.96,10.0,ENE,6.9,-,N/A,,Overcast,60,2012-10-14 11:55:00
7:09 AM,73.4,68.0,83,29.97,10.0,ENE,8.1,-,N/A,,Light Drizzle,60,2012-10-14 12:09:00
7:45 AM,73.4,69.8,88,29.99,10.0,NE,8.1,-,N/A,,Overcast,50,2012-10-14 12:45:00
7:55 AM,72.9,70.5,92,30.00,10.0,ENE,6.9,-,0.00,,Overcast,60,2012-10-14 12:55:00
8:42 AM,73.4,69.8,88,30.02,10.0,NE,5.8,-,N/A,,Mostly Cloudy,50,2012-10-14 13:42:00
8:50 AM,73.4,69.8,88,30.02,10.0,ENE,6.9,-,N/A,,Overcast,60,2012-10-14 13:50:00
8:53 AM,73.4,69.8,88,30.02,10.0,ENE,6.9,-,N/A,,Mostly Cloudy,60,2012-10-14 13:53:00
8:55 AM,74.3,70.5,88,30.02,10.0,ENE,5.8,-,N/A,,Mostly Cloudy,70,2012-10-14 13:55:00
9:55 AM,77.4,70.2,78,30.05,10.0,NE,3.5,-,N/A,,Scattered Clouds,40,2012-10-14 14:55:00
10:55 AM,81.0,70.2,70,30.06,10.0,NNW,4.6,-,N/A,,Scattered Clouds,330,2012-10-14 15:55:00
11:00 AM,80.6,69.8,70,30.06,10.0,NW,8.1,-,N/A,,Mostly Cloudy,320,2012-10-14 16:00:00
11:03 AM,80.6,69.8,70,30.06,10.0,North,9.2,-,N/A,,Scattered Clouds,350,2012-10-14 16:03:00
11:55 AM,83.3,63.9,52,30.05,10.0,North,9.2,19.6,N/A,,Clear,350,2012-10-14 16:55:00
12:55 PM,86.4,55.9,35,30.04,10.0,NNE,9.2,-,N/A,,Clear,20,2012-10-14 17:55:00
1:55 PM,88.0,47.1,24,30.01,10.0,NE,11.5,-,N/A,,Scattered Clouds,40,2012-10-14 18:55:00
2:55 PM,90.0,43.3,20,29.99,10.0,North,9.2,-,N/A,,Mostly Cloudy,10,2012-10-14 19:55:00
3:55 PM,90.1,44.6,21,29.98,10.0,North,8.1,-,N/A,,Mostly Cloudy,350,2012-10-14 20:55:00
4:55 PM,90.1,42.8,19,29.96,10.0,NNW,6.9,-,N/A,,Scattered Clouds,340,2012-10-14 21:55:00
5:55 PM,89.8,43.0,20,29.97,10.0,NNE,8.1,-,N/A,,Partly Cloudy,20,2012-10-14 22:55:00
6:55 PM,84.6,46.6,27,29.98,10.0,North,5.8,-,N/A,,Partly Cloudy,350,2012-10-14 23:55:00
7:55 PM,79.3,49.6,35,29.99,10.0,NNE,6.9,-,N/A,,Mostly Cloudy,20,2012-10-15 00:55:00
8:55 PM,74.3,50.2,43,30.01,10.0,NNE,8.1,-,N/A,,Clear,30,2012-10-15 01:55:00
9:55 PM,73.9,48.6,41,30.03,10.0,NE,8.1,-,N/A,,Partly Cloudy,40,2012-10-15 02:55:00
10:55 PM,74.8,48.7,40,30.05,10.0,NE,4.6,-,N/A,,Mostly Cloudy,50,2012-10-15 03:55:00
11:55 PM,75.7,47.5,37,30.05,10.0,NE,9.2,-,N/A,,Overcast,50,2012-10-15 04:55:00